This demonstration page uses our WeatherBlox Daily Observations layout. Learn more.

Left ArrowRight Arrow

Hourly Observations for June 17, 2019

Temp ( °F °C ) Dew Point ( °F °C ) Humidity (%) Winds ( mph kmh ) Pressure ( in mb ) Visibility ( mi km ) Precip ( " mm )
12:53 am 00:53 Mostly Cloudy with Light Rain 68 20 67 19.4 96 96 VRB 3 6 29.91 1013 6 10 0.08 2.03
1:53 am 01:53 Mostly Clear 68 20 67 19.4 96 96 W 3 6 29.92 1013 10 16 0.01 0.25
2:02 am 02:02 Mostly Clear 68 20 67 19.4 96 96 N N/A 29.92 1013 9 14 N/A
2:35 am 02:35 Cloudy with Light Rain 68 20 67 19.4 96 96 N N/A 29.93 1013 7 11 N/A
2:53 am 02:53 Cloudy 68 20 67 19.4 96 96 N N/A 29.91 1013 10 16 N/A
3:01 am 03:01 Mostly Cloudy with Light Rain 68 20 67 19.4 96 96 N N/A 29.91 1013 9 14 N/A
3:46 am 03:46 Mostly Cloudy 68 20 67 19.4 96 96 N N/A 29.92 1013 10 16 N/A
3:53 am 03:53 Mostly Cloudy 68 20 67 19.4 96 96 N N/A 29.91 1013 10 16 N/A
4:00 am 04:00 Cloudy 68 20 67 19.4 96 96 N N/A 29.91 1013 9 14 N/A
4:15 am 04:15 Cloudy 67 19.4 66 18.9 97 97 N N/A 29.91 1013 8 13 N/A
4:43 am 04:43 Cloudy 67 19.4 67 19.4 100 100 N N/A 29.92 1013 10 16 N/A
4:53 am 04:53 Cloudy 68 20 67 19.4 96 96 N N/A 29.92 1013 10 16 N/A
5:11 am 05:11 Cloudy 67 19.4 67 19.4 100 100 N N/A 29.93 1013 8 13 N/A
5:53 am 05:53 Mostly Cloudy 68 20 66 18.9 93 93 N N/A 29.93 1014 10 16 N/A
6:04 am 06:04 Mostly Cloudy 68 20 66 18.9 93 93 N N/A 29.95 1014 10 16 N/A
6:53 am 06:53 Mostly Cloudy with Mist and Fog 67 19.4 67 19.4 100 100 N N/A 29.96 1014 6 10 N/A
7:53 am 07:53 Mostly Cloudy 68 20 68 20 100 100 N N/A 29.97 1015 10 16 N/A
8:27 am 08:27 Mostly Cloudy 70 21.1 69 20.6 97 97 SSW 3 6 29.97 1015 10 16 N/A
8:46 am 08:46 Cloudy 70 21.1 69 20.6 97 97 SSW 3 6 29.97 1015 10 16 N/A
8:53 am 08:53 Cloudy 70 21.1 69 20.6 97 97 VRB 3 6 29.98 1015 10 16 N/A
9:15 am 09:15 Cloudy 71 21.7 69 20.6 94 94 N N/A 29.97 1015 10 16 N/A
9:53 am 09:53 Cloudy 71 21.7 69 20.6 94 94 VRB 5 7 29.98 1015 10 16 N/A
10:30 am 10:30 Cloudy 72 22.2 70 21.1 94 94 VRB 3 6 29.98 1015 10 16 N/A
10:53 am 10:53 Cloudy 72 22.2 71 21.7 97 97 VRB 5 7 30.00 1016 10 16 N/A
11:04 am 11:04 Cloudy with Light Rain 71 21.7 70 21.1 96 96 S 5 7 29.99 1016 10 16 N/A
11:16 am 11:16 Cloudy with Light Rain 71 21.7 70 21.1 96 96 SSW 3 6 29.99 1016 10 16 N/A
11:31 am 11:31 Cloudy with Rain 71 21.7 70 21.1 96 96 N N/A 29.99 1016 2 3 0.05 1.27
11:40 am 11:40 Cloudy with Light Rain 71 21.7 70 21.1 96 96 N N/A 29.99 1016 2 3 0.06 1.52
11:53 am 11:53 Cloudy 71 21.7 71 21.7 100 100 WSW 3 6 30.00 1016 10 16 0.06 1.52
12:09 pm 12:09 Cloudy 72 22.2 72 22.2 100 100 N N/A 29.99 1016 10 16 N/A
12:27 pm 12:27 Mostly Cloudy 73 22.8 72 22.2 96 96 N N/A 29.99 1016 10 16 N/A
12:53 pm 12:53 Mostly Cloudy 75 23.9 74 23.3 96 96 N N/A 29.99 1016 10 16 N/A
1:28 pm 13:28 Partly Cloudy 76 24.4 74 23.3 94 94 N N/A 29.97 1015 10 16 N/A
1:53 pm 13:53 Mostly Sunny 78 25.6 72 22.2 82 82 N N/A 29.97 1015 10 16 N/A
2:15 pm 14:15 Mostly Cloudy 79 26.1 71 21.7 77 77 N N/A 29.95 1014 10 16 N/A
2:53 pm 14:53 Mostly Cloudy 79 26.1 71 21.7 77 77 WSW 7 11 29.96 1015 10 16 N/A
3:53 pm 15:53 Mostly Cloudy 81 27.2 71 21.7 72 72 WNW 6 9 29.94 1014 10 16 N/A
4:37 pm 16:37 Mostly Cloudy with Thunderstorms 81 27.2 71 21.7 72 72 N N/A 29.91 1013 10 16 N/A
4:53 pm 16:53 Cloudy 79 26.1 71 21.7 77 77 VRB 3 6 29.93 1013 10 16 N/A
5:01 pm 17:01 Mostly Cloudy 78 25.6 72 22.2 82 82 N 7 11 29.91 1013 10 16 N/A
5:24 pm 17:24 Cloudy with Nearby Thunderstorms 79 26.1 72 22.2 79 79 NNE 7 11 29.90 1013 10 16 N/A
5:33 pm 17:33 Mostly Cloudy 79 26.1 72 22.2 79 79 N 9 15 29.89 1012 10 16 N/A
5:53 pm 17:53 Mostly Cloudy 78 25.6 70 21.1 76 76 NNE 5 7 29.91 1013 10 16 N/A
6:53 pm 18:53 Cloudy with Nearby Thunderstorms 77 25 71 21.7 82 82 WNW 13 20 29.92 1013 10 16 N/A
7:23 pm 19:23 Cloudy with Light Rain 71 21.7 66 18.9 84 84 NW 15 24 29.93 1014 10 16 N/A
7:29 pm 19:29 Cloudy with Heavy Rain 69 20.6 66 18.9 90 90 WNW 14 22 29.93 1014 2 2 0.17 4.32
7:39 pm 19:39 Cloudy with Light Rain 68 20 66 18.9 93 93 NW 14 22 29.93 1013 3 4 0.25 6.35
7:41 pm 19:41 Cloudy with Nearby Thunderstorms 68 20 66 18.9 93 93 NW 13 20 29.94 1014 3 5 0.26 6.60
7:50 pm 19:50 Cloudy with Heavy Thunderstorms 68 20 66 19 94 94 NW 12 19 29.95 1014 5 8 0.29 7.37
7:53 pm 19:53 Cloudy with Heavy Thunderstorms 68 20 66 18.9 93 93 NW 12 19 29.95 1014 4 6 0.30 7.62
8:09 pm 20:09 Cloudy with Heavy Thunderstorms 68 20 66 18.9 93 93 W 7 11 29.96 1014 2 3 0.09 2.29
8:21 pm 20:21 Cloudy with Thunderstorms 68 20 66 18.9 93 93 S 5 7 29.95 1014 3 5 0.13 3.30
8:28 pm 20:28 Cloudy with Heavy Thunderstorms 67 19.4 66 18.9 97 97 N N/A 29.94 1014 3 4 0.15 3.81
8:37 pm 20:37 Cloudy with Thunderstorms 68 20 66 18.9 93 93 E 5 7 29.93 1013 4 6 0.17 4.32
8:45 pm 20:45 Cloudy with Light Rain 67 19.4 66 18.9 97 97 WSW 6 9 29.94 1014 4 6 0.18 4.57
8:53 pm 20:53 Partly Cloudy 67 19.4 66 18.9 97 97 N N/A 29.93 1014 10 16 0.18 4.57
9:53 pm 21:53 Clear 67 19.4 65 18.3 93 93 N N/A 29.94 1014 10 16 N/A
10:53 pm 22:53 Clear 66 18.9 65 18.3 96 96 N N/A 29.96 1015 9 14 N/A
11:53 pm 23:53 Mostly Cloudy 65 18.3 64 17.8 97 97 N N/A 29.97 1015 8 13 N/A

Powered by AerisWeather